Home   Weather   Bad Vöslau   Past weeks

Flag for Austria Past Weather in Bad Vöslau, Lower Austria, Austria — Yesterday and Last 2 Weeks

Now
45 °F

Cool.


Feels Like: 45 °F
Forecast: 40 / 48 °F
Wind: 2 mph from Northwest

Location: Eisenstadt

Current Time: Apr 27, 2017 at 5:22:30 am

Latest Report: Apr 27, 2017 at 4:00 am


Visibility: N/A

Pressure: 29.83 "Hg

Humidity: 84%

Dew Point: 41 °F

Location of Bad VöslauLocation

Past Weather in Bad Vöslau — Graph

°F

Bad Vöslau Temperature Yesterday

Maximum temperature yesterday: 66 °F (at 5:00 pm)
Minimum temperature yesterday: 47 °F (at 11:00 pm)
Average temperature yesterday: 56 °F

High & Low Weather Summary for the Past Weeks

 TemperatureHumidityPressure
High75 °F (Apr 25, 3:00 pm)95% (Apr 19, 9:00 pm)30.48 "Hg (Apr 19, 9:00 pm)
Low31 °F (Apr 21, 6:00 am)30% (Apr 25, 2:00 pm)29.65 "Hg (Apr 25, 7:00 pm)
Average48 °F65%30.02 "Hg
* Reported Apr 12 3:00 am — Apr 27 3:00 am, Bad Vöslau, Weather by CustomWeather, © 2017

Note: Actual official high and low records may vary slightly from our data, if they occured in-between our weather recording intervals... More about our weather records

Advertising

Bad Vöslau Weather History for the Previous 24 Hours

Scroll right to see more
 ConditionsComfort  
Time TempWeatherWind HumidityBarometerVisibility
3:00 am
Thu, Apr 27
46 °FCool.1 mph82%29.84 "HgN/A
2:00 am46 °FFog.2 mph83%29.85 "HgN/A
1:00 am47 °FCool.5 mph78%29.84 "HgN/A
12:00 am47 °FCool.5 mph79%29.85 "HgN/A
11:00 pm
Wed, Apr 26
47 °FClear.5 mph77%29.85 "Hg6 mi
10:00 pm48 °FCool.6 mph77%29.83 "HgN/A
9:00 pm49 °FCool.7 mph76%29.82 "HgN/A
8:00 pm51 °FOvercast.8 mph75%29.79 "Hg6 mi
7:00 pm57 °FOvercast.7 mph66%29.76 "Hg9 mi
6:00 pm65 °FMild.6 mph45%29.73 "HgN/A
5:00 pm66 °FOvercast.8 mph47%29.71 "Hg9 mi
4:00 pm66 °FMild.6 mph47%29.70 "HgN/A
3:00 pm66 °FMild.7 mph46%29.70 "HgN/A
2:00 pm65 °FOvercast.5 mph46%29.69 "Hg9 mi
1:00 pm63 °FMild.5 mph52%29.69 "HgN/A
12:00 pm62 °FRefreshingly cool.5 mph53%29.70 "HgN/A
11:00 am60 °FOvercast.2 mph59%29.70 "Hg9 mi
10:00 am59 °FCool.1 mph63%29.70 "HgN/A
9:00 am55 °FCool.1 mph77%29.71 "HgN/A
8:00 am52 °FOvercast.1 mph82%29.71 "Hg9 mi
7:00 am51 °FOvercast.1 mph84%29.71 "Hg9 mi
6:00 am52 °FOvercast.2 mph79%29.70 "Hg12 mi
5:00 am51 °FCool.2 mph80%29.71 "HgN/A
Weather by CustomWeather, © 2017

See weather overviewHow to use our weather pages